QPF
0.00 0.00 0.00 0.00 0.00 0.01 0.01 0.00 0.00 0.01 0.01 0.00 0.00 0.00 0.00 0.00 0.02 0.00 0.01 0.00 0.00 0.01 0.05 0.01 0.00 0.00 0.00 0.05 0.01 0.00 0.00 0.15 0.06 0.13 0.15 0.15 0.23 0.17 0.09 0.14 0.23 0.24
0.00 0.00 0.00 0.00 0.00 0.00 0.00 0.01 0.01 0.00 0.00 0.00 0.00 0.01 0.02 0.01 0.00 0.01 0.03 0.01 0.00 0.00 0.00 0.00 0.00 0.00 0.00 0.00 0.00 0.00 0.00 0.00 0.00 0.01 0.05 0.02 0.05 0.07 0.10 0.13 0.05 0.26
0.00 0.00 0.00 0.00 0.00 0.00 0.00 0.00 0.00 0.00 0.00 0.00 0.01 0.01 0.00 0.00 0.00 0.01 0.00 0.01 0.00 0.00 0.00 0.00 0.00 0.00 0.00 0.00 0.00 0.00 0.00 0.00 0.00 0.00 0.00 0.00 0.01 0.02 0.01 0.02 0.08 0.25
0.00 0.00 0.00 0.00 0.00 0.00 0.00 0.00 0.00 0.00 0.00 0.00 0.00 0.01 0.00 0.01 0.00 0.00 0.00 0.01 0.05 0.01 0.01 0.00 0.00 0.00 0.00 0.00 0.00 0.00 0.00 0.00 0.00 0.00 0.00 0.00 0.00 0.01 0.00 0.01 0.02 0.02
0.00 0.00 0.00 0.00 0.00 0.00 0.00 0.00 0.00 0.00 0.00 0.00 0.00 0.01 0.00 0.00 0.00 0.01 0.02 0.00 0.00 0.00 0.01 0.00 0.00 0.00 0.00 0.00 0.00 0.01 0.00 0.00 0.00 0.00 0.00 0.00 0.00 0.00 0.00 0.00 0.02 0.02
0.00 0.00 0.00 0.00 0.00 0.00 0.00 0.00 0.00 0.00 0.01 0.01 0.02 0.02 0.04 0.01 0.02 0.00 0.00 0.00 0.00 0.00 0.00 0.00 0.00 0.00 0.00 0.00 0.00 0.00 0.00 0.00 0.00 0.00 0.00 0.00 0.00 0.00 0.00 0.00 0.01 0.01
0.00 0.00 0.00 0.00 0.00 0.00 0.00 0.00 0.00 0.00 0.00 0.01 0.01 0.00 0.00 0.00 0.00 0.00 0.00 0.00 0.00 0.00 0.00 0.00 0.00 0.00 0.00 0.00 0.00 0.00 0.00 0.00 0.00 0.01 0.01 0.01 0.00 0.00 0.00 0.00 0.00 0.04
0.00 0.00 0.00 0.00 0.00 0.00 0.00 0.00 0.00 0.00 0.01 0.00 0.00 0.00 0.00 0.01 0.00 0.00 0.00 0.00 0.00 0.00 0.00 0.00 0.00 0.00 0.00 0.00 0.00 0.00 0.00 0.00 0.00 0.00 0.01 0.02 0.02 0.00 0.00 0.00 0.01 0.00
0.00 0.00 0.00 0.00 0.00 0.00 0.00 0.00 0.00 0.00 0.00 0.00 0.00 0.00 0.00 0.00 0.00 0.00 0.00 0.00 0.00 0.00 0.00 0.00 0.00 0.00 0.00 0.00 0.00 0.00 0.00 0.00 0.00 0.00 0.00 0.02 0.01 0.01 0.01 0.01 0.00 0.00
0.00 0.00 0.00 0.00 0.00 0.00 0.00 0.00 0.00 0.00 0.00 0.00 0.00 0.00 0.00 0.00 0.00 0.00 0.00 0.00 0.00 0.00 0.00 0.00 0.00 0.00 0.00 0.00 0.00 0.00 0.00 0.00 0.00 0.00 0.00 0.00 0.01 0.01 0.03 0.03 0.01 0.00
0.00 0.00 0.00 0.00 0.00 0.00 0.00 0.00 0.00 0.00 0.00 0.00 0.00 0.00 0.00 0.00 0.00 0.00 0.00 0.00 0.00 0.00 0.00 0.00 0.00 0.00 0.00 0.00 0.00 0.00 0.00 0.00 0.00 0.00 0.00 0.00 0.00 0.02 0.03 0.03 0.02 0.01
0.00 0.00 0.00 0.00 0.00 0.00 0.00 0.00 0.00 0.00 0.00 0.00 0.00 0.00 0.00 0.00 0.00 0.00 0.00 0.00 0.00 0.00 0.00 0.00 0.00 0.00 0.00 0.00 0.00 0.00 0.00 0.00 0.00 0.00 0.00 0.00 0.00 0.00 0.01 0.01 0.01 0.01
0.00 0.00 0.00 0.00 0.00 0.00 0.00 0.00 0.00 0.00 0.00 0.00 0.00 0.00 0.00 0.00 0.00 0.00 0.00 0.00 0.00 0.00 0.00 0.00 0.00 0.00 0.00 0.00 0.00 0.00 0.00 0.00 0.00 0.00 0.00 0.00 0.00 0.00 0.00 0.00 0.00 0.00
0.00 0.00 0.00 0.00 0.00 0.00 0.00 0.00 0.00 0.00 0.00 0.00 0.00 0.00 0.00 0.00 0.00 0.00 0.00 0.00 0.00 0.00 0.00 0.00 0.00 0.00 0.00 0.00 0.00 0.00 0.00 0.00 0.00 0.00 0.00 0.00 0.00 0.00 0.00 0.00 0.00 0.00
0.00 0.00 0.00 0.00 0.00 0.00 0.00 0.00 0.00 0.00 0.00 0.00 0.00 0.00 0.00 0.00 0.00 0.00 0.00 0.00 0.00 0.00 0.00 0.00 0.00 0.00 0.00 0.00 0.00 0.00 0.00 0.00 0.00 0.00 0.00 0.00 0.00 0.00 0.00 0.00 0.00 0.00
0.00 0.00 0.00 0.00 0.00 0.00 0.00 0.00 0.00 0.00 0.00 0.00 0.00 0.00 0.00 0.00 0.00 0.00 0.00 0.00 0.00 0.00 0.00 0.00 0.00 0.00 0.00 0.00 0.00 0.00 0.00 0.00 0.00 0.00 0.00 0.00 0.00 0.00 0.00 0.00 0.00 0.00
0.00 0.00 0.00 0.00 0.00 0.00 0.00 0.00 0.00 0.00 0.00 0.00 0.00 0.00 0.00 0.00 0.00 0.00 0.00 0.00 0.00 0.00 0.00 0.00 0.00 0.00 0.00 0.00 0.00 0.00 0.00 0.00 0.00 0.00 0.00 0.00 0.00 0.00 0.00 0.00 0.00 0.00
0.00 0.00 0.00 0.00 0.00 0.00 0.00 0.00 0.00 0.00 0.00 0.00 0.00 0.00 0.00 0.00 0.00 0.00 0.00 0.00 0.00 0.00 0.00 0.00 0.00 0.00 0.00 0.00 0.00 0.00 0.00 0.00 0.00 0.00 0.00 0.00 0.00 0.00 0.00 0.00 0.00 0.00
0.00 0.00 0.00 0.00 0.00 0.00 0.00 0.00 0.00 0.00 0.00 0.00 0.00 0.00 0.00 0.00 0.00 0.00 0.00 0.00 0.00 0.00 0.00 0.00 0.00 0.00 0.00 0.00 0.00 0.00 0.00 0.00 0.00 0.00 0.00 0.00 0.00 0.00 0.00 0.00 0.00 0.00
0.00 0.00 0.00 0.00 0.00 0.00 0.00 0.00 0.00 0.00 0.00 0.00 0.00 0.00 0.00 0.00 0.00 0.00 0.00 0.00 0.00 0.00 0.00 0.00 0.00 0.00 0.00 0.00 0.00 0.00 0.00 0.00 0.00 0.00 0.00 0.00 0.00 0.00 0.00 0.00 0.00 0.00
0.00 0.00 0.00 0.00 0.00 0.00 0.00 0.00 0.00 0.00 0.00 0.00 0.00 0.00 0.00 0.00 0.00 0.00 0.00 0.00 0.00 0.00 0.00 0.00 0.00 0.00 0.00 0.00 0.00 0.00 0.00 0.00 0.00 0.00 0.00 0.00 0.00 0.00 0.00 0.00 0.00 0.00
0.00 0.00 0.00 0.00 0.00 0.00 0.00 0.00 0.00 0.00 0.00 0.00 0.00 0.00 0.00 0.00 0.00 0.00 0.00 0.00 0.00 0.00 0.00 0.00 0.00 0.00 0.00 0.00 0.00 0.00 0.00 0.00 0.00 0.00 0.00 0.00 0.00 0.00 0.00 0.00 0.00 0.00
0.00 0.00 0.00 0.00 0.00 0.00 0.00 0.00 0.00 0.00 0.00 0.00 0.00 0.00 0.00 0.00 0.00 0.00 0.00 0.00 0.00 0.00 0.00 0.00 0.00 0.00 0.00 0.00 0.00 0.00 0.00 0.00 0.00 0.00 0.00 0.00 0.00 0.00 0.00 0.00 0.00 0.00
0.00 0.00 0.00 0.00 0.00 0.00 0.00 0.00 0.00 0.00 0.00 0.00 0.00 0.00 0.00 0.00 0.00 0.00 0.00 0.00 0.00 0.00 0.00 0.00 0.00 0.00 0.00 0.00 0.00 0.00 0.00 0.00 0.00 0.00 0.00 0.00 0.00 0.00 0.00 0.00 0.00 0.00
0.00 0.00 0.00 0.00 0.00 0.00 0.00 0.00 0.00 0.00 0.00 0.00 0.00 0.00 0.00 0.00 0.00 0.00 0.00 0.00 0.00 0.00 0.00 0.00 0.00 0.00 0.00 0.00 0.00 0.00 0.00 0.00 0.00 0.00 0.00 0.00 0.00 0.00 0.00 0.00 0.00 0.00
0.00 0.00 0.00 0.00 0.00 0.00 0.00 0.00 0.00 0.00 0.00 0.00 0.00 0.00 0.00 0.00 0.00 0.00 0.00 0.00 0.00 0.00 0.00 0.00 0.00 0.00 0.00 0.00 0.00 0.00 0.00 0.00 0.00 0.00 0.00 0.00 0.00 0.00 0.00 0.00 0.00 0.00
MSLP
1020.44 1020.28 1020.16 1020.00 1019.88 1019.68 1019.56 1019.48 1019.28 1019.12 1018.92 1018.84 1018.76 1018.68 1018.60 1018.44 1018.20 1018.08 1017.96 1017.80 1017.64 1017.52 1017.40 1017.24 1017.08 1016.96 1016.88 1016.76 1016.64 1016.56 1016.56 1016.52 1016.36 1016.24 1016.20 1016.24 1016.32 1016.28 1016.28 1016.12 1016.00 1015.84
1020.44 1020.28 1020.16 1020.08 1019.84 1019.60 1019.52 1019.40 1019.32 1019.16 1019.00 1018.88 1018.80 1018.76 1018.68 1018.60 1018.52 1018.40 1018.28 1018.24 1018.12 1018.00 1017.84 1017.68 1017.52 1017.36 1017.24 1017.12 1016.88 1016.72 1016.60 1016.48 1016.40 1016.24 1016.24 1016.24 1016.28 1016.24 1016.16 1016.04 1015.88 1015.72
1020.44 1020.36 1020.24 1020.08 1019.96 1019.76 1019.60 1019.48 1019.36 1019.28 1019.16 1019.04 1018.92 1018.88 1018.92 1018.88 1018.92 1018.84 1018.76 1018.72 1018.64 1018.48 1018.28 1018.12 1017.96 1017.84 1017.68 1017.56 1017.36 1017.12 1016.88 1016.68 1016.60 1016.36 1016.28 1016.32 1016.28 1016.24 1016.12 1015.96 1015.84 1015.72
1020.44 1020.36 1020.28 1020.08 1019.96 1019.84 1019.72 1019.60 1019.56 1019.48 1019.36 1019.32 1019.28 1019.24 1019.20 1019.20 1019.20 1019.20 1019.16 1019.04 1019.04 1018.84 1018.68 1018.52 1018.48 1018.28 1018.12 1017.92 1017.68 1017.44 1017.24 1017.08 1016.96 1016.68 1016.52 1016.40 1016.40 1016.36 1016.28 1016.08 1015.92 1015.76
1020.56 1020.36 1020.24 1020.16 1020.04 1019.92 1019.80 1019.76 1019.76 1019.72 1019.68 1019.72 1019.52 1019.52 1019.48 1019.48 1019.48 1019.52 1019.56 1019.52 1019.36 1019.24 1019.12 1019.00 1018.84 1018.72 1018.52 1018.28 1018.08 1017.84 1017.60 1017.48 1017.28 1017.04 1016.84 1016.76 1016.72 1016.64 1016.56 1016.40 1016.36 1016.40
1020.56 1020.48 1020.32 1020.24 1020.20 1020.04 1020.00 1019.96 1019.88 1019.88 1019.92 1019.96 1020.00 1019.96 1019.96 1019.88 1019.88 1019.88 1019.92 1019.88 1019.72 1019.64 1019.52 1019.36 1019.24 1019.20 1019.00 1018.80 1018.52 1018.32 1018.16 1017.92 1017.72 1017.40 1017.12 1017.08 1017.12 1017.04 1017.00 1017.00 1016.96 1017.04
1020.68 1020.56 1020.40 1020.32 1020.28 1020.16 1020.12 1020.08 1020.04 1020.08 1020.16 1020.24 1020.24 1020.36 1020.28 1020.24 1020.28 1020.36 1020.32 1020.28 1020.20 1020.08 1020.04 1019.88 1019.72 1019.60 1019.44 1019.20 1018.92 1018.72 1018.44 1018.24 1017.96 1017.68 1017.40 1017.36 1017.40 1017.60 1017.60 1017.60 1017.60 1017.60
1020.72 1020.60 1020.52 1020.44 1020.36 1020.32 1020.28 1020.28 1020.28 1020.32 1020.40 1020.48 1020.64 1020.76 1020.64 1020.68 1020.72 1020.76 1020.68 1020.60 1020.52 1020.48 1020.36 1020.24 1020.12 1020.00 1019.84 1019.56 1019.36 1019.08 1018.76 1018.52 1018.28 1017.92 1017.76 1018.00 1018.12 1018.32 1018.32 1018.24 1018.20 1018.12
1020.76 1020.68 1020.60 1020.52 1020.52 1020.48 1020.44 1020.48 1020.48 1020.52 1020.60 1020.76 1020.96 1021.08 1021.04 1021.08 1021.12 1021.04 1021.00 1020.88 1020.80 1020.76 1020.64 1020.52 1020.44 1020.32 1020.16 1019.96 1019.76 1019.48 1019.20 1018.84 1018.60 1018.28 1018.36 1018.68 1018.84 1019.00 1018.96 1018.76 1018.72 1018.80
1020.84 1020.80 1020.72 1020.68 1020.64 1020.64 1020.60 1020.64 1020.64 1020.72 1020.84 1021.04 1021.28 1021.36 1021.36 1021.40 1021.32 1021.28 1021.12 1021.12 1021.08 1021.00 1020.92 1020.84 1020.68 1020.60 1020.44 1020.28 1020.12 1019.88 1019.48 1019.12 1018.80 1018.64 1018.80 1019.08 1019.32 1019.44 1019.44 1019.36 1019.44 1019.40
1020.92 1020.88 1020.88 1020.80 1020.80 1020.76 1020.72 1020.72 1020.76 1020.80 1020.96 1021.20 1021.44 1021.56 1021.64 1021.60 1021.56 1021.52 1021.44 1021.36 1021.32 1021.32 1021.20 1021.08 1021.08 1020.96 1020.76 1020.52 1020.32 1020.08 1019.72 1019.36 1019.04 1018.96 1019.28 1019.52 1019.68 1019.76 1019.80 1019.88 1019.88 1019.96
1020.96 1020.96 1020.92 1020.92 1020.88 1020.88 1020.88 1020.92 1020.92 1021.00 1021.20 1021.48 1021.64 1021.80 1021.84 1021.84 1021.88 1021.80 1021.76 1021.76 1021.64 1021.64 1021.52 1021.48 1021.36 1021.20 1021.08 1020.84 1020.60 1020.28 1019.88 1019.60 1019.36 1019.40 1019.64 1019.80 1019.88 1020.04 1020.12 1020.16 1020.24 1020.24
1021.00 1020.96 1021.00 1021.00 1021.00 1021.04 1021.04 1021.08 1021.20 1021.28 1021.40 1021.72 1021.88 1021.96 1022.04 1022.16 1022.16 1022.12 1022.08 1022.04 1021.96 1021.84 1021.72 1021.68 1021.56 1021.40 1021.24 1021.00 1020.76 1020.52 1020.20 1019.96 1019.84 1019.88 1019.92 1020.00 1020.16 1020.28 1020.32 1020.32 1020.40 1020.40
1021.04 1021.04 1021.04 1021.08 1021.12 1021.16 1021.20 1021.28 1021.40 1021.48 1021.64 1021.92 1022.08 1022.16 1022.28 1022.36 1022.40 1022.40 1022.36 1022.24 1022.16 1022.08 1022.00 1021.84 1021.68 1021.48 1021.40 1021.24 1021.00 1020.84 1020.52 1020.32 1020.28 1020.32 1020.40 1020.48 1020.56 1020.64 1020.68 1020.68 1020.68 1020.64
1021.08 1021.12 1021.12 1021.12 1021.16 1021.24 1021.36 1021.44 1021.60 1021.72 1021.84 1022.00 1022.16 1022.32 1022.48 1022.60 1022.64 1022.60 1022.52 1022.44 1022.36 1022.28 1022.20 1022.12 1022.00 1021.96 1021.88 1021.68 1021.28 1021.00 1020.84 1020.64 1020.64 1020.72 1020.80 1020.92 1020.96 1021.00 1021.04 1021.12 1021.08 1020.88
1021.04 1021.12 1021.16 1021.20 1021.24 1021.36 1021.48 1021.56 1021.76 1021.92 1022.04 1022.24 1022.44 1022.56 1022.68 1022.76 1022.80 1022.80 1022.84 1022.84 1022.68 1022.56 1022.44 1022.40 1022.36 1022.24 1022.12 1021.76 1021.48 1021.24 1021.12 1021.00 1021.00 1021.12 1021.20 1021.32 1021.36 1021.36 1021.40 1021.44 1021.48 1021.40
1021.00 1021.16 1021.24 1021.28 1021.40 1021.48 1021.56 1021.68 1021.92 1022.08 1022.28 1022.44 1022.60 1022.72 1022.84 1022.88 1022.92 1023.04 1023.12 1023.12 1023.04 1022.92 1022.84 1022.80 1022.76 1022.60 1022.24 1021.84 1021.60 1021.36 1021.32 1021.36 1021.40 1021.56 1021.64 1021.72 1021.76 1021.76 1021.84 1021.92 1021.88 1021.76
1021.04 1021.24 1021.28 1021.40 1021.36 1021.44 1021.56 1021.80 1022.00 1022.20 1022.44 1022.64 1022.76 1022.88 1023.00 1023.08 1023.20 1023.36 1023.40 1023.36 1023.28 1023.20 1023.20 1023.20 1023.08 1022.88 1022.44 1022.16 1021.92 1021.72 1021.60 1021.64 1021.72 1021.88 1022.04 1022.12 1022.16 1022.20 1022.28 1022.28 1022.24 1022.08
1021.04 1021.20 1021.36 1021.40 1021.44 1021.48 1021.64 1021.88 1022.12 1022.32 1022.52 1022.72 1022.88 1022.96 1023.04 1023.20 1023.44 1023.52 1023.64 1023.60 1023.48 1023.44 1023.52 1023.56 1023.40 1023.16 1022.76 1022.44 1022.28 1022.08 1021.96 1021.92 1022.08 1022.20 1022.32 1022.44 1022.48 1022.48 1022.52 1022.52 1022.44 1022.32
1021.16 1021.28 1021.40 1021.48 1021.48 1021.52 1021.68 1021.92 1022.20 1022.48 1022.60 1022.72 1022.88 1023.00 1023.08 1023.28 1023.44 1023.64 1023.76 1023.76 1023.76 1023.76 1023.76 1023.72 1023.68 1023.48 1023.08 1022.80 1022.64 1022.48 1022.36 1022.28 1022.40 1022.48 1022.64 1022.72 1022.76 1022.76 1022.72 1022.68 1022.60 1022.56
1021.20 1021.32 1021.48 1021.52 1021.48 1021.52 1021.60 1021.84 1022.24 1022.56 1022.68 1022.80 1022.84 1022.92 1023.04 1023.12 1023.32 1023.64 1023.88 1024.00 1024.00 1023.96 1023.88 1023.96 1024.00 1023.80 1023.40 1023.16 1023.00 1022.84 1022.68 1022.60 1022.72 1022.72 1022.76 1022.84 1022.92 1022.92 1022.92 1022.84 1022.80 1022.76
1021.20 1021.36 1021.48 1021.56 1021.56 1021.56 1021.60 1021.72 1022.08 1022.48 1022.72 1022.80 1022.88 1023.00 1023.04 1023.12 1023.36 1023.64 1023.92 1024.12 1024.16 1024.08 1024.00 1024.20 1024.16 1023.92 1023.64 1023.44 1023.28 1023.20 1023.00 1023.00 1023.00 1022.96 1022.96 1022.92 1022.92 1022.92 1022.88 1022.84 1022.80 1022.76
1021.20 1021.36 1021.48 1021.56 1021.60 1021.64 1021.68 1021.72 1021.92 1022.32 1022.64 1022.76 1022.88 1023.00 1023.04 1023.08 1023.24 1023.64 1024.00 1024.12 1024.16 1024.16 1024.08 1024.28 1024.28 1024.16 1023.92 1023.68 1023.56 1023.48 1023.32 1023.36 1023.32 1023.24 1023.24 1023.16 1023.08 1023.00 1022.96 1022.92 1022.72 1022.64
1021.16 1021.24 1021.40 1021.52 1021.56 1021.60 1021.68 1021.80 1022.04 1022.20 1022.48 1022.68 1022.72 1023.00 1023.04 1023.08 1023.36 1023.84 1024.16 1024.24 1024.24 1024.32 1024.28 1024.24 1024.44 1024.36 1024.16 1023.96 1023.80 1023.68 1023.68 1023.72 1023.72 1023.56 1023.60 1023.56 1023.36 1023.24 1023.20 1023.20 1023.00 1022.80
1021.20 1021.24 1021.36 1021.48 1021.52 1021.64 1021.68 1021.76 1021.84 1022.04 1022.32 1022.56 1022.72 1022.80 1022.84 1023.20 1023.48 1023.84 1024.28 1024.44 1024.36 1024.36 1024.36 1024.44 1024.52 1024.48 1024.36 1024.24 1024.08 1024.00 1023.96 1024.00 1023.92 1023.84 1023.68 1023.80 1023.72 1023.44 1023.40 1023.40 1023.32 1023.20
1021.12 1021.16 1021.28 1021.40 1021.52 1021.64 1021.68 1021.72 1021.88 1022.04 1022.20 1022.32 1022.48 1022.56 1022.72 1023.20 1023.52 1023.88 1024.28 1024.52 1024.60 1024.68 1024.76 1024.76 1024.64 1024.72 1024.64 1024.48 1024.36 1024.24 1024.20 1024.20 1024.16 1023.84 1023.80 1023.88 1023.96 1023.88 1023.68 1023.52 1023.68 1023.60
Thickness
5580 5581 5581 5582 5583 5584 5585 5585 5586 5588 5588 5590 5590 5590 5592 5593 5594 5595 5595 5596 5596 5596 5597 5598 5599 5600 5601 5602 5603 5604 5604 5605 5606 5607 5608 5607 5608 5609 5610 5612 5614 5615
5575 5576 5577 5577 5579 5580 5581 5581 5582 5583 5584 5585 5585 5586 5586 5587 5587 5589 5589 5590 5590 5590 5591 5592 5593 5594 5595 5596 5597 5598 5599 5600 5601 5602 5602 5603 5604 5605 5607 5609 5611 5613
5572 5571 5572 5573 5574 5575 5576 5576 5577 5578 5579 5580 5580 5581 5580 5581 5581 5582 5583 5583 5584 5584 5585 5586 5587 5588 5589 5589 5591 5592 5593 5593 5594 5596 5597 5598 5599 5601 5603 5606 5608 5610
5568 5568 5568 5569 5569 5570 5571 5571 5572 5573 5574 5574 5574 5575 5575 5575 5576 5576 5576 5577 5578 5579 5580 5581 5581 5582 5583 5584 5584 5585 5586 5586 5587 5589 5591 5592 5594 5596 5599 5602 5604 5606
5564 5564 5565 5564 5565 5566 5566 5567 5567 5567 5568 5568 5569 5569 5570 5570 5570 5571 5571 5571 5573 5573 5574 5575 5575 5576 5577 5578 5578 5579 5580 5581 5581 5583 5585 5586 5587 5589 5592 5595 5597 5598
5561 5561 5561 5561 5561 5562 5562 5562 5562 5563 5562 5563 5563 5563 5563 5564 5564 5565 5565 5566 5567 5568 5569 5570 5570 5571 5571 5572 5573 5574 5574 5574 5575 5577 5579 5580 5580 5581 5584 5587 5588 5590
5558 5558 5558 5557 5557 5558 5558 5558 5559 5559 5558 5558 5558 5558 5558 5559 5559 5559 5560 5560 5562 5563 5564 5564 5565 5565 5566 5567 5569 5569 5569 5570 5571 5573 5574 5574 5573 5573 5575 5577 5579 5581
5556 5556 5556 5555 5555 5554 5555 5555 5554 5554 5554 5554 5553 5552 5553 5554 5554 5554 5555 5556 5557 5558 5558 5559 5560 5561 5561 5563 5564 5565 5566 5566 5567 5569 5569 5568 5566 5565 5565 5568 5570 5572
5554 5554 5554 5554 5553 5552 5552 5551 5551 5551 5550 5549 5548 5548 5548 5549 5549 5550 5551 5552 5553 5553 5554 5555 5555 5556 5557 5558 5559 5560 5561 5562 5562 5564 5563 5561 5559 5557 5558 5560 5563 5564
5553 5552 5552 5552 5551 5550 5550 5549 5548 5548 5547 5546 5545 5544 5544 5544 5545 5546 5547 5548 5548 5549 5549 5550 5550 5552 5552 5553 5554 5555 5557 5557 5559 5559 5558 5555 5553 5552 5552 5554 5555 5556
5551 5551 5550 5549 5549 5548 5548 5547 5547 5546 5544 5543 5542 5541 5540 5541 5542 5542 5543 5544 5544 5544 5545 5545 5545 5546 5547 5548 5549 5551 5552 5554 5555 5555 5552 5550 5549 5548 5548 5548 5549 5550
5550 5550 5549 5548 5547 5547 5546 5545 5545 5543 5542 5540 5538 5538 5538 5537 5537 5538 5538 5539 5539 5540 5540 5541 5541 5542 5543 5544 5545 5547 5549 5550 5551 5550 5548 5546 5545 5544 5543 5543 5544 5544
5549 5548 5548 5547 5546 5545 5544 5544 5543 5542 5539 5537 5535 5536 5535 5534 5534 5533 5534 5535 5535 5536 5537 5537 5538 5539 5540 5540 5542 5543 5545 5545 5546 5545 5544 5543 5542 5541 5540 5540 5540 5540
5548 5547 5546 5546 5545 5544 5542 5542 5541 5540 5537 5535 5534 5533 5533 5532 5531 5530 5531 5532 5532 5533 5533 5534 5535 5536 5536 5537 5539 5540 5541 5542 5542 5540 5540 5539 5538 5538 5537 5536 5537 5538
5547 5545 5545 5544 5543 5542 5541 5540 5539 5538 5536 5534 5531 5531 5530 5529 5529 5528 5529 5529 5529 5530 5530 5532 5532 5532 5532 5533 5535 5536 5537 5538 5538 5537 5537 5536 5535 5534 5534 5534 5534 5535
5545 5544 5543 5542 5541 5540 5539 5538 5537 5536 5534 5532 5529 5528 5527 5527 5527 5527 5526 5526 5526 5527 5528 5529 5529 5529 5530 5531 5533 5534 5534 5535 5535 5534 5534 5533 5532 5532 5531 5531 5531 5532
5544 5542 5542 5541 5539 5538 5537 5536 5534 5533 5531 5529 5528 5526 5526 5525 5525 5524 5524 5523 5524 5524 5525 5525 5526 5527 5529 5531 5532 5532 5533 5532 5532 5531 5530 5530 5529 5529 5528 5527 5528 5528
5542 5541 5539 5539 5538 5537 5535 5534 5532 5531 5529 5527 5526 5525 5524 5524 5522 5521 5521 5521 5522 5522 5522 5522 5523 5525 5527 5528 5529 5530 5531 5530 5529 5528 5527 5526 5526 5525 5524 5524 5524 5525
5540 5538 5537 5536 5536 5535 5533 5532 5530 5528 5527 5526 5524 5523 5523 5522 5520 5519 5519 5519 5520 5520 5520 5519 5520 5522 5524 5526 5527 5527 5528 5528 5527 5525 5524 5523 5522 5522 5521 5521 5521 5521
5538 5536 5535 5534 5534 5533 5532 5530 5528 5526 5525 5524 5523 5522 5521 5520 5518 5517 5516 5516 5517 5517 5517 5518 5518 5519 5522 5524 5524 5525 5525 5525 5524 5523 5522 5521 5520 5519 5519 5518 5518 5518
5536 5534 5532 5531 5531 5530 5530 5528 5525 5523 5523 5522 5521 5521 5520 5519 5518 5516 5515 5514 5515 5515 5516 5516 5516 5517 5519 5521 5522 5522 5523 5523 5522 5521 5520 5519 5518 5517 5516 5516 5516 5515
5533 5531 5530 5529 5529 5528 5528 5527 5525 5522 5521 5521 5520 5520 5519 5519 5517 5515 5514 5513 5512 5514 5514 5514 5514 5516 5518 5519 5519 5520 5520 5520 5519 5519 5518 5517 5516 5515 5515 5514 5514 5513
5531 5530 5528 5527 5527 5526 5526 5525 5524 5522 5520 5520 5519 5518 5517 5518 5516 5514 5513 5512 5512 5512 5513 5512 5512 5513 5515 5516 5517 5517 5517 5517 5516 5516 5515 5515 5514 5514 5513 5512 5511 5511
5529 5528 5526 5525 5525 5524 5524 5524 5523 5521 5520 5519 5518 5517 5517 5516 5515 5512 5510 5510 5510 5510 5511 5511 5510 5510 5512 5513 5514 5515 5514 5513 5513 5513 5512 5510 5511 5511 5509 5509 5508 5508
5527 5526 5525 5524 5523 5523 5523 5522 5522 5521 5519 5518 5518 5518 5516 5515 5513 5512 5509 5508 5508 5508 5508 5508 5508 5507 5509 5509 5510 5511 5511 5510 5510 5510 5508 5507 5506 5506 5506 5505 5504 5504
5526 5525 5524 5523 5522 5522 5522 5521 5521 5520 5519 5518 5518 5517 5516 5514 5512 5510 5508 5506 5506 5505 5505 5505 5505 5505 5505 5505 5506 5507 5506 5506 5506 5506 5505 5503 5502 5502 5501 5501 5500 5499